Meteopurmerend
purmerend
Purmerend - Baaienwijk



My webcam  My webcam


Onweer radar Meer informatie blitzortung!


Regen radar Meer informatie rain snow radar


Bezoek onze andere website:

CandyAppleRed WebdesignWebdesign Purmerend Candy Apple Red

MeteopurmerendBlog

Template documentation
and downloads



We konden geen weer-waarchuwingen ophalen. Ga rechtstreeks naar de Meteoalarm site : www.meteoalarm.eu en controleer daar .

15 daagse weersverwachting Sarpsborg (NO)

  • Overzicht
  • Per uur
  • 15 dagen
  • Extra
  • Vergelijk
  • Kaarten
  • Dagkaart
  • Meer »
  • Info
  • Statistieken
  • Directe link
    Temp 6h Neerslag Wind  
 04:58     21:47    Daglengte: 16:49 Vandaag
14:00
17°
10.3 mm
3
20:00
16°
5.8 mm
3
 05:00     21:45    Daglengte: 16:45 Morgen
02:00
15°
 
2
08:00
16°
 
2
14:00
23°
 
4
20:00
21°
 
3
 05:03     21:43    Daglengte: 16:40 Zaterdag 31 Jul
02:00
18°
 
3
08:00
17°
6.8 mm
4
14:00
18°
14.7 mm
4
warningclass
20:00
17°
8.6 mm
2
 05:05     21:40    Daglengte: 16:35 Zondag 01 Aug
02:00
14°
 
3
08:00
14°
 
5
Locatie info
Region: Østfold
Latitude: 59.2832°N
Longitude: 11.1066°E
54 masl
Postcode: 1723
Temp/Neerslag /Baro Onweer/Dauwpunt
    Temp Baro 1h Neerslag Dauwpunt Wind UV Bewolking  
 04:58     21:47    Daglengte: 16:49 Vandaag
12:00
17°
997.8 hPa 7.8 mm
49%
15.6°
3
Windvlaag: 5.5 m/s
71% warningclass
13:00
17°
997.4 hPa 1.2 mm
82%
15.6°
3
Windvlaag: 5.8 m/s
78% warningclass
14:00
17°
997.1 hPa 1.3 mm
82%
15.7°
3
Windvlaag: 5.9 m/s
78%
15:00
17°
996.8 hPa 0.9 mm
82%
15.7°
3
Windvlaag: 5 m/s
69%
16:00
17°
996.4 hPa 1.1 mm
82%
15.6°
3
Windvlaag: 5.4 m/s
71%
17:00
17°
996.2 hPa 1.2 mm
82%
15.3°
3
Windvlaag: 5.2 m/s
77%
18:00
17°
996.0 hPa 1.4 mm
82%
15.0°
3
Windvlaag: 5.3 m/s
78% warningclass
19:00
16°
995.6 hPa 1.2 mm
82%
14.5°
3
Windvlaag: 5 m/s
74%
20:00
16°
995.2 hPa
68%
14.2°
3
Windvlaag: 4.7 m/s
63%
21:00
16°
994.8 hPa
25%
14.3°
2
Windvlaag: 4.2 m/s
58%
22:00
15°
994.5 hPa
24%
14.5°
2
Windvlaag: 3.5 m/s
71%
23:00
15°
994.1 hPa
35%
14.6°
2
Windvlaag: 3.7 m/s
85%
 05:00     21:45    Daglengte: 16:45 Morgen
00:00
15°
993.7 hPa
80%
14.7°
2
Windvlaag: 3.5 m/s
86%
01:00
15°
993.3 hPa
82%
14.6°
2
Windvlaag: 2.7 m/s
85%
02:00
15°
993.0 hPa
82%
14.6°
2
Windvlaag: 2.3 m/s
78%
03:00
15°
992.7 hPa
80%
14.5°
1
Windvlaag: 1.5 m/s
85%
04:00
15°
992.6 hPa
33%
14.8°
1
Windvlaag: 1.4 m/s
83%
05:00
15°
992.3 hPa
25%
14.9°
2
Windvlaag: 1.3 m/s
82%
06:00
15°
992.1 hPa
23%
14.9°
2
Windvlaag: 1.9 m/s
84%
07:00
16°
992.2 hPa
64%
15.2°
2
Windvlaag: 1.6 m/s
70%
08:00
16°
992.0 hPa
77%
15.4°
2
Windvlaag: 0.5 m/s
74%
09:00
17°
992.0 hPa
79%
15.4°
2
Windvlaag: 2.4 m/s
53%
10:00
18°
992.1 hPa
80%
14.6°
3
Windvlaag: 2.2 m/s
17%
11:00
20°
992.4 hPa
29%
13.6°
3
Windvlaag: 2.3 m/s
54%
12:00
21°
992.6 hPa
15%
13.5°
3
Windvlaag: 1.9 m/s
30%
13:00
22°
992.8 hPa
34%
13.0°
4
Windvlaag: -0.3 m/s
40%
14:00
23°
993.1 hPa
71%
12.4°
4
Windvlaag: 1.6 m/s
34%
15:00
24°
993.4 hPa
31%
11.7°
4
Windvlaag: 4 m/s
31%
16:00
24°
993.7 hPa
63%
13.5°
4
Windvlaag: 4.8 m/s
6%
17:00
24°
993.9 hPa
24%
15.5°
4
Windvlaag: 5.1 m/s
8%
18:00
23°
994.1 hPa
22%
15.9°
4
Windvlaag: 6.2 m/s
7%
19:00
23°
994.2 hPa
15%
16.8°
3
Windvlaag: 6.4 m/s
5%
20:00
21°
994.3 hPa
14%
17.3°
3
Windvlaag: 6.5 m/s
9%
21:00
20°
994.4 hPa
14%
17.6°
3
Windvlaag: 6.4 m/s
14%
22:00
19°
994.6 hPa
14%
17.4°
4
Windvlaag: 7.5 m/s
28%
23:00
18°
994.7 hPa
14%
17.2°
4
Windvlaag: 8.5 m/s
60%
 05:03     21:43    Daglengte: 16:40 Zaterdag 31 Jul
00:00
18°
994.7 hPa
14%
17.1°
3
Windvlaag: 9.2 m/s
47%
01:00
18°
994.8 hPa
14%
16.8°
3
Windvlaag: 9.4 m/s
85%
02:00
18°
994.5 hPa
14%
16.8°
3
Windvlaag: 8.1 m/s
85%
03:00
17°
994.2 hPa
14%
16.7°
3
Windvlaag: 8 m/s
85%
04:00
17°
994.1 hPa
19%
16.9°
3
Windvlaag: 8.1 m/s
76%
05:00
17°
994.1 hPa
28%
16.4°
4
Windvlaag: 7.9 m/s
87%
06:00
17°
994.1 hPa
38%
16.4°
4
Windvlaag: 8.3 m/s
81%
07:00
17°
994.1 hPa 3.4 mm
52%
16.0°
4
Windvlaag: 7.8 m/s
88%
08:00
17°
994.1 hPa 3.4 mm
95%
15.3°
4
Windvlaag: 7.2 m/s
98%
09:00
17°
994.3 hPa 2.1 mm
100%
14.5°
4
Windvlaag: 7.8 m/s
99%
10:00
17°
994.5 hPa 2.4 mm
100%
14.1°
4
Windvlaag: 8.1 m/s
99% warningclass
11:00
18°
994.6 hPa 2.4 mm
100%
14.0°
4
Windvlaag: 8.2 m/s
100% warningclass
12:00
18°
994.7 hPa 2.7 mm
100%
14.0°
4
Windvlaag: 8.2 m/s
100% warningclass
13:00
18°
994.5 hPa 2.5 mm
100%
13.9°
4
Windvlaag: 7.7 m/s
100% warningclass
14:00
18°
994.5 hPa 2.5 mm
100%
14.0°
4
Windvlaag: 7.2 m/s
100% warningclass
15:00
17°
994.5 hPa 4.0 mm
100%
13.8°
4
Windvlaag: 7.2 m/s
97% warningclass
16:00
17°
994.4 hPa 2.3 mm
100%
13.5°
3
Windvlaag: 7 m/s
97%
17:00
17°
994.4 hPa 2.2 mm
97%
13.1°
3
Windvlaag: 6.9 m/s
76%
18:00
17°
994.3 hPa
47%
13.2°
3
Windvlaag: 6.3 m/s
85%
19:00
17°
994.2 hPa
32%
13.1°
3
Windvlaag: 5.5 m/s
84%
20:00
17°
994.2 hPa
24%
12.9°
2
Windvlaag: 3.7 m/s
73%
21:00
16°
994.4 hPa
21%
12.8°
2
Windvlaag: 2 m/s
75%
22:00
15°
994.5 hPa
21%
12.8°
2
Windvlaag: -0.6 m/s
65%
23:00
15°
994.6 hPa
22%
12.7°
2
Windvlaag: -1.1 m/s
96%
 05:05     21:40    Daglengte: 16:35 Zondag 01 Aug
00:00
14°
994.7 hPa
22%
12.7°
2
Windvlaag: -1.1 m/s
68%
01:00
14°
994.9 hPa
22%
12.6°
2
Windvlaag: -0.8 m/s
60%
02:00
14°
994.7 hPa
32%
11.8°
3
Windvlaag: -0.8 m/s
90%
03:00
13°
995.2 hPa
77%
10.2°
2
Windvlaag: 11 m/s
69%
04:00
14°
995.6 hPa
30%
9.3°
3
Windvlaag: 12.7 m/s
65%
05:00
13°
996.0 hPa
22%
8.3°
4
Windvlaag: 13.7 m/s
71%
06:00
13°
996.5 hPa
22%
8.3°
4
Windvlaag: 13.7 m/s
22%
07:00
13°
997.0 hPa
23%
8.2°
5
Windvlaag: 13.9 m/s
65%
08:00
14°
997.7 hPa
25%
8.4°
5
Windvlaag: 10.5 m/s
75%
09:00
14°
997.0 hPa 10.5 mm
100%
7.6°
6
Windvlaag: 9.3 m/s
81%
10:00
15°
997.4 hPa 10.5 mm
100%
7.7°
6
Windvlaag: 7.6 m/s
76%
11:00
16°
997.6 hPa 10.5 mm
100%
7.8°
5
Windvlaag: 6.4 m/s
49%
Temp/Neerslag /Baro Onweer/Dauwpunt
    Temp Baro Neerslag Dauwpunt Wind Bewolking  
 04:58     21:47    Daglengte: 16:49 Vandaag
14:00
17°
997.1 hPa 10.3 mm 15.7°
3
78%
17:00
17°
996.2 hPa 3.1 mm 15.3°
3
77%
20:00
16°
995.2 hPa 2.7 mm 14.2°
3
63%
23:00
15°
994.1 hPa   14.6°
2
85%
 05:00     21:45    Daglengte: 16:45 Morgen
02:00
15°
993.0 hPa   14.6°
2
78%
05:00
15°
992.3 hPa   14.9°
2
82%
08:00
16°
992.0 hPa   15.4°
2
74%
11:00
20°
992.4 hPa   13.6°
3
54%
14:00
23°
993.1 hPa   12.4°
4
34%
17:00
24°
993.9 hPa   15.5°
4
8%
20:00
21°
994.3 hPa   17.3°
3
9%
23:00
18°
994.7 hPa   17.2°
4
60%
 05:03     21:43    Daglengte: 16:40 Zaterdag 31 Jul
02:00
18°
994.5 hPa   16.8°
3
85%
05:00
17°
994.1 hPa   16.4°
4
87%
08:00
17°
994.1 hPa 6.8 mm 15.3°
4
98%
11:00
18°
994.6 hPa 7.0 mm 14.0°
4
100% warningclass
14:00
18°
994.5 hPa 7.7 mm 14.0°
4
100% warningclass
17:00
17°
994.4 hPa 8.6 mm 13.1°
3
76%
20:00
17°
994.2 hPa   12.9°
2
73%
23:00
15°
994.6 hPa   12.7°
2
96%
 05:05     21:40    Daglengte: 16:35 Zondag 01 Aug
02:00
14°
994.7 hPa   11.8°
3
90%
05:00
13°
996.0 hPa   8.3°
4
71%
08:00
14°
997.7 hPa   8.4°
5
75%
11:00
16°
997.6 hPa 31.5 mm 7.8°
5
49%
14:00
18°
998.4 hPa 31.5 mm 6.7°
4
35%
17:00
21°
1002.6 hPa 18.9 mm 4.6°
1
0%
20:00
18°
1003.7 hPa 18.9 mm 9.8°
3
0%
23:00
13°
1005.3 hPa 18.9 mm 8.9°
1
0%
 05:07     21:38    Daglengte: 16:31 Maandag 02 Aug
02:00
11°
1006.0 hPa 18.9 mm 8.0°
2
0%
05:00
10°
1006.8 hPa 18.9 mm 5.5°
2
0%
08:00
13°
1007.2 hPa 18.9 mm 6.1°
2
1%
11:00
19°
1007.6 hPa 18.9 mm 8.3°
1
1%
14:00
21°
1007.4 hPa 18.9 mm 10.0°
2
1%
17:00
20°
1007.8 hPa 18.9 mm 9.1°
2
1%
20:00
17°
1008.3 hPa 19.1 mm 9.9°
2
1%
23:00
13°
1009.4 hPa 19.1 mm 8.5°
2
1%
 05:09     21:36    Daglengte: 16:27 Dinsdag 03 Aug
02:00
11°
1009.9 hPa 19.2 mm 8.6°
2
1%
05:00
12°
1009.9 hPa 19.3 mm 8.5°
2
1%
08:00
13°
1010.1 hPa 19.8 mm 10.1°
1
1%
11:00
18°
1010.0 hPa 19.9 mm 10.2°
1
1%
14:00
19°
1009.4 hPa 21.2 mm 11.4°
1
1%
17:00
19°
1008.9 hPa 22.5 mm 9.7°
2
1%
20:00
17°
1009.1 hPa 22.7 mm 11.5°
2
1%
23:00
14°
1010.0 hPa 23.1 mm 11.4°
1
1%
 05:12     21:33    Daglengte: 16:21 Woensdag 04 Aug
02:00
13°
1010.4 hPa 24.9 mm 12.3°
1
1%
05:00
12°
1010.9 hPa 25.1 mm 10.9°
1
1%
08:00
15°
1011.9 hPa 25.1 mm 12.3°
1
0%
11:00
20°
1011.9 hPa 25.1 mm 11.8°
1
0%
14:00
21°
1011.5 hPa 25.3 mm 11.3°
3
0%
17:00
20°
1011.9 hPa 25.4 mm 13.0°
4
0%
20:00
18°
1011.8 hPa 25.4 mm 13.7°
3
0%
23:00
15°
1012.3 hPa 25.4 mm 12.3°
2
1%
 05:14     21:31    Daglengte: 16:17 Donderdag 05 Aug
02:00
14°
1011.9 hPa 25.4 mm 12.1°
2
1%
05:00
15°
1011.4 hPa 25.4 mm 10.6°
3
1%
08:00
17°
1011.6 hPa 25.4 mm 10.9°
5
1%
11:00
19°
1012.2 hPa   11.3°
5
1%
14:00
20°
1012.2 hPa 50.8 mm 11.6°
6
1%
20:00
17°
1011.4 hPa 56.0 mm 14.0°
4
1%
 05:16     21:28    Daglengte: 16:12 Vrijdag 06 Aug
02:00
15°
1012.1 hPa 60.3 mm 13.3°
3
0%
08:00
18°
1012.3 hPa 60.6 mm 13.7°
3
0%
14:00
21°
1013.6 hPa 60.6 mm 13.1°
5
1%
20:00
18°
1013.6 hPa 60.6 mm 12.1°
4
0%
 05:18     21:26    Daglengte: 16:08 Zaterdag 07 Aug
02:00
15°
1014.6 hPa 60.6 mm 11.7°
2
0%
08:00
17°
1015.0 hPa 60.8 mm 13.2°
2
1%
14:00
23°
1014.9 hPa 61.6 mm 10.3°
3
1%
20:00
18°
1014.2 hPa 61.8 mm 12.5°
0
1%
 05:21     21:23    Daglengte: 16:02 Zondag 08 Aug
02:00
15°
1014.0 hPa 62.1 mm 11.6°
2
1%
08:00
15°
1007.2 hPa 0.8 mm 12.0°
1
74%
14:00
19°
1007.5 hPa 1.3 mm 13.1°
2
78%
20:00
17°
1007.7 hPa 1.7 mm 13.4°
2
66%
 05:23     21:20    Daglengte: 15:57 Maandag 09 Aug
02:00
14°
1009.0 hPa 1.4 mm 12.0°
1
67%
08:00
15°
1009.3 hPa 0.4 mm 12.4°
1
66%
14:00
19°
1009.9 hPa 1.1 mm 13.1°
2
69%
20:00
17°
1009.8 hPa 1.4 mm 13.1°
2
66%
 05:25     21:18    Daglengte: 15:53 Dinsdag 10 Aug
02:00
14°
1011.0 hPa 0.6 mm 11.7°
1
61%
08:00
15°
1011.2 hPa 0.8 mm 12.3°
1
58%
14:00
19°
1011.3 hPa 0.7 mm 12.9°
3
53%
20:00
17°
1010.9 hPa 0.7 mm 13.2°
2
52%
 05:28     21:15    Daglengte: 15:47 Woensdag 11 Aug
02:00
14°
1012.1 hPa 0.3 mm 11.9°
1
57%
08:00
15°
1012.5 hPa 0.3 mm 12.3°
1
67%
14:00
20°
1012.3 hPa 0.8 mm 13.6°
3
64%
20:00
17°
1011.5 hPa 0.5 mm 13.5°
3
48%
 05:30     21:12    Daglengte: 15:42 Donderdag 12 Aug
02:00
15°
1012.0 hPa 0.7 mm 12.2°
2
47%
08:00
15°
1011.6 hPa 0.5 mm 12.2°
1
50%
14:00
20°
1011.4 hPa 0.8 mm 13.4°
2
54%
20:00
18°
1011.3 hPa 0.5 mm 13.2°
2
53%
 05:32     21:10    Daglengte: 15:38 Vrijdag 13 Aug
02:00
15°
1012.2 hPa 0.3 mm 11.7°
1
60%
08:00
16°
1012.1 hPa 0.9 mm 12.3°
1
58%
  CAPE Lifted Index Hail Supercell Tornado SRH 3km CL BTM PRES CL TOP PRES Swiss DWD icon SMHI TS
 04:58     21:47    Daglengte: 16:49 Vandaag
12:00 830 J/kg -3.7 K 0 % 0 % 0 % 0 m²/s² 0 0 -2.89 80
13:00 707 J/kg -3.1 K 0 % 0 % 0 % 0 m²/s² 0 0 -2.14 80
14:00 613 J/kg -2.8 K 0 % 0 % 0 % 0 m²/s² 0 0 -1.69 80
15:00 589 J/kg -2.4 K 0 % 0 % 0 % 0 m²/s² 0 0 -1.59 80
16:00 412 J/kg -1.4 K 0 % 0 % 0 % 0 m²/s² 0 0 -0.8 3
17:00 380 J/kg -1.1 K 0 % 0 % 0 % 0 m²/s² 0 0 -0.77 80
18:00 301 J/kg -0.8 K 0 % 0 % 0 % 0 m²/s² 0 0 -0.5 95
19:00 316 J/kg -1.1 K 0 % 0 % 0 % 0 m²/s² 0 0 -0.86 3
20:00 339 J/kg -1.5 K 0 % 0 % 0 % 0 m²/s² 0 0 -1.38 3
21:00 349 J/kg -1.3 K 0 % 0 % 0 % 0 m²/s² 0 0 -1.18 3
22:00 370 J/kg -1.8 K 0 % 0 % 0 % 0 m²/s² 0 0 -1.68 3
23:00 402 J/kg -2.5 K 0 % 0 % 0 % 0 m²/s² 0 0 -2.2 3
 05:00     21:45    Daglengte: 16:45 Morgen
00:00 491 J/kg -2.8 K 0 % 0 % 0 % 0 m²/s² 0 0 -2.26 61
01:00 358 J/kg -2.1 K 0 % 0 % 0 % 0 m²/s² 0 0 -1.02 80
02:00 301 J/kg -1.8 K 0 % 0 % 0 % 0 m²/s² 0 0 -0.63 80
03:00 169 J/kg -1.3 K 0 % 0 % 0 % 0 m²/s² 0 0 0.26 80
04:00 177 J/kg -1.0 K 0 % 0 % 0 % 0 m²/s² 0 0 1.04 3
05:00 36 J/kg 0.0 K 0 % 0 % 0 % 0 m²/s² 0 0 3.15 3
06:00 0 J/kg 1.5 K 0 % 0 % 0 % 0 m²/s² 0 0 4.83 3
07:00 0 J/kg 2.4 K 0 % 0 % 0 % 0 m²/s² 0 0 5.85 3
08:00 2 J/kg 2.9 K 0 % 0 % 0 % 0 m²/s² 0 0 4.91 61
09:00 2 J/kg 2.8 K 0 % 0 % 0 % 0 m²/s² 0 0 5.59 61
10:00 0 J/kg 2.5 K 0 % 0 % 0 % 0 m²/s² 0 0 3.7 3
11:00 0 J/kg 2.2 K 0 % 0 % 0 % 0 m²/s² 0 0 3.67 3
12:00 6 J/kg 1.0 K 0 % 0 % 0 % 0 m²/s² 0 0 3.55 3
13:00 121 J/kg -0.6 K 0 % 0 % 0 % 0 m²/s² 0 0 1.29 3
14:00 437 J/kg -2.0 K 0 % 0 % 0 % 0 m²/s² 0 0 -0.47 3
15:00 601 J/kg -2.5 K 0 % 0 % 0 % 0 m²/s² 0 0 -1.21 3
16:00 667 J/kg -2.8 K 0 % 0 % 0 % 0 m²/s² 0 0 -1.54 1
17:00 735 J/kg -3.2 K 0 % 0 % 0 % 0 m²/s² 0 0 -1.79 2
18:00 738 J/kg -3.1 K 0 % 0 % 0 % 0 m²/s² 0 0 -1.27 2
19:00 1008 J/kg -3.8 K 0 % 0 % 0 % 0 m²/s² 0 0 -1.73 2
20:00 1244 J/kg -4.5 K 0 % 0 % 0 % 0 m²/s² 0 0 -2.49 2
21:00 1184 J/kg -4.5 K 0 % 0 % 0 % 0 m²/s² 0 0 -2.22 2
22:00 989 J/kg -4.0 K 0 % 0 % 0 % 0 m²/s² 0 0 -2.05 3
23:00 908 J/kg -3.9 K 0 % 0 % 0 % 0 m²/s² 0 0 -2.34 3
 05:03     21:43    Daglengte: 16:40 Zaterdag 31 Jul
00:00 835 J/kg -3.7 K 0 % 0 % 0 % 0 m²/s² 0 0 -1.69 3
01:00 861 J/kg -3.8 K 0 % 0 % 0 % 0 m²/s² 0 0 -2 3
02:00 804 J/kg -3.6 K 0 % 0 % 0 % 0 m²/s² 0 0 -1.11 3
03:00 710 J/kg -3.5 K 0 % 0 % 0 % 0 m²/s² 0 0 -0.62 3
04:00 656 J/kg -3.2 K 0 % 0 % 0 % 0 m²/s² 0 0 -0.32 3
05:00 591 J/kg -3.0 K 0 % 0 % 0 % 0 m²/s² 0 0 0.39 3
06:00 504 J/kg -2.7 K 0 % 0 % 0 % 0 m²/s² 0 0 1.56 3
07:00 512 J/kg -2.8 K 0 % 0 % 0 % 0 m²/s² 0 0 1.25 3
08:00 415 J/kg -2.9 K 0 % 0 % 0 % 0 m²/s² 0 0 1.36 3
09:00 328 J/kg -2.5 K 0 % 0 % 0 % 0 m²/s² 0 0 1.64 3
10:00 282 J/kg -2.6 K 0 % 0 % 0 % 0 m²/s² 0 0 1.66 95
11:00 300 J/kg -2.7 K 0 % 0 % 0 % 0 m²/s² 0 0 1.56 95
12:00 368 J/kg -2.7 K 0 % 0 % 0 % 0 m²/s² 0 0 1.32 95
13:00 298 J/kg -2.3 K 0 % 0 % 0 % 0 m²/s² 0 0 1.33 95
14:00 197 J/kg -2.1 K 0 % 0 % 0 % 0 m²/s² 0 0 0.9 95
15:00 79 J/kg -1.8 K 0 % 0 % 0 % 0 m²/s² 0 0 0.45 95
16:00 31 J/kg -1.6 K 0 % 0 % 0 % 0 m²/s² 0 0 0.59 80
17:00 18 J/kg -1.4 K 0 % 0 % 0 % 0 m²/s² 0 0 0.85 80
18:00 0 J/kg -1.1 K 0 % 0 % 0 % 0 m²/s² 0 0 1.09 2
19:00 17 J/kg -1.2 K 0 % 0 % 0 % 0 m²/s² 0 0 1.2 2
20:00 74 J/kg -1.3 K 0 % 0 % 0 % 0 m²/s² 0 0 1.7 2
21:00 8 J/kg -1.0 K 0 % 0 % 0 % 0 m²/s² 0 0 2.33 3
22:00 0 J/kg -1.2 K 0 % 0 % 0 % 0 m²/s² 0 0 2.22 3
23:00 0 J/kg -2.0 K 0 % 0 % 0 % 0 m²/s² 0 0 1.33 3
 05:05     21:40    Daglengte: 16:35 Zondag 01 Aug
00:00 0 J/kg -1.5 K 0 % 0 % 0 % 0 m²/s² 0 0 1.92 3
01:00 0 J/kg -0.9 K 0 % 0 % 0 % 0 m²/s² 0 0 1.77 2
02:00 0 J/kg -0.5 K 0 % 0 % 0 % 0 m²/s² 0 0 1.27 3
03:00 0 J/kg -0.2 K 0 % 0 % 0 % 0 m²/s² 0 0 1.06 3
04:00 0 J/kg -0.3 K 0 % 0 % 0 % 0 m²/s² 0 0 0.33 3
05:00 0 J/kg 0.0 K 0 % 0 % 0 % 0 m²/s² 0 0 0.24 3
06:00 0 J/kg 0.5 K 0 % 0 % 0 % 0 m²/s² 0 0 0.71 2
07:00 0 J/kg 1.2 K 0 % 0 % 0 % 0 m²/s² 0 0 1.5 3
08:00 0 J/kg 1.7 K 0 % 0 % 0 % 0 m²/s² 0 0 2.21 3
09:00 0 J/kg 1.7 K 0 % 0 % 0 % 0 m²/s² 0 0 2.42
10:00 0 J/kg 1.9 K 0 % 0 % 0 % 0 m²/s² 0 0 2.8
11:00 0 J/kg 2.5 K 0 % 0 % 0 % 0 m²/s² 0 0 3.46
Temp Baro Wind Neerslag
  EWN Forecast EWN WRFDA DWD ICON FMI HIRLAM MET Norway GFS
 04:58     21:47    Daglengte: 16:49 Vandaag
14:00 17.2° 997.1 hPa 3.4 m/s 10.3 mm 17.9° 996.1 hPa 6.2 m/s 6.4 mm 16.6° 997.3 hPa 3.4 m/s 8.6 mm 17.3° 996.1 hPa 3.1 m/s 0.0 mm 16.8° 997.2 hPa 3.1 m/s
17:00 16.7° 996.2 hPa 3.4 m/s 3.1 mm 16.1° 996.0 hPa 4.7 m/s 10.2 mm 16.5° 996.5 hPa 3.4 m/s 0.9 mm 16.7° 994.7 hPa 4.0 m/s 0.0 mm 15.6° 996.6 hPa 4.4 m/s
20:00 16.3° 995.2 hPa 2.6 m/s 2.7 mm 15.7° 994.1 hPa 3.6 m/s 15.1 mm 15.7° 995.5 hPa 2.0 m/s 1.1 mm 16.5° 993.8 hPa 3.5 m/s 0.0 mm 14.5° 995.3 hPa 3.7 m/s
23:00 15.1° 994.1 hPa 2.1 m/s 0.0 mm 14.9° 992.9 hPa 3.8 m/s 20.9 mm 14.3° 994.4 hPa 1.0 m/s 0.0 mm 15.5° 992.3 hPa 2.0 m/s 0.0 mm 13.4° 994.1 hPa 2.3 m/s
 05:00     21:45    Daglengte: 16:45 Morgen
02:00 14.9° 993.0 hPa 1.6 m/s 0.0 mm 13.6° 991.1 hPa 2.5 m/s 28.8 mm 14.6° 993.6 hPa 0.9 m/s 1.0 mm 15.9° 990.6 hPa 2.3 m/s 0.0 mm 13.4° 993.4 hPa 1.1 m/s
05:00 15.1° 992.3 hPa 1.7 m/s 0.0 mm 13.1° 991.2 hPa 1.1 m/s 29.2 mm 14.7° 992.6 hPa 1.1 m/s 0.4 mm 15.4° 990.6 hPa 2.5 m/s 0.0 mm 13.1° 993.2 hPa 1.5 m/s
08:00 16.2° 992.0 hPa 1.7 m/s 0.0 mm 14.8° 992.1 hPa 2.7 m/s 29.4 mm 16.4° 992.0 hPa 1.3 m/s 0.1 mm 16.7° 990.9 hPa 2.9 m/s 0.0 mm 13.8° 993.9 hPa 1.1 m/s
11:00 19.6° 992.4 hPa 3.3 m/s 0.0 mm 18.3° 992.5 hPa 3.0 m/s 29.4 mm 19.6° 992.5 hPa 3.4 m/s 0.3 mm 21.4° 991.1 hPa 3.4 m/s 0.0 mm 19.2° 994.0 hPa 2.6 m/s
14:00 23.2° 993.1 hPa 3.6 m/s 0.0 mm 21.9° 993.3 hPa 4.3 m/s 29.4 mm 23.5° 993.2 hPa 3.8 m/s 0.0 mm 24.9° 991.3 hPa 3.7 m/s 0.0 mm 22.6° 994.5 hPa 2.8 m/s
17:00 23.9° 993.9 hPa 3.8 m/s 0.0 mm 22.2° 993.3 hPa 5.6 m/s 29.4 mm 24.7° 994.3 hPa 2.3 m/s 0.0 mm 24.4° 991.7 hPa 4.4 m/s 0.0 mm 21.6° 995.1 hPa 4.6 m/s
20:00 21.4° 994.3 hPa 3.2 m/s 0.0 mm 20.7° 993.5 hPa 4.3 m/s 29.4 mm 22.5° 995.2 hPa 1.6 m/s 0.0 mm 21.6° 992.5 hPa 3.3 m/s 0.0 mm 19.9° 995.3 hPa 2.6 m/s
23:00 18.1° 994.7 hPa 3.9 m/s 0.0 mm 17.8° 993.6 hPa 5.4 m/s 29.4 mm 17.9° 996.2 hPa 2.0 m/s 0.0 mm 18.2° 993.2 hPa 3.8 m/s 0.0 mm 17.3° 995.8 hPa 4.3 m/s
 05:03     21:43    Daglengte: 16:40 Zaterdag 31 Jul
02:00 17.7° 994.5 hPa 3.4 m/s 0.0 mm 17.4° 992.9 hPa 3.1 m/s 29.4 mm 17.7° 996.0 hPa 3.3 m/s 0.0 mm 17.4° 993.8 hPa 2.6 m/s 0.0 mm 16.5° 995.7 hPa 5.0 m/s
05:00 17.3° 994.1 hPa 4.3 m/s 0.0 mm 17.0° 992.2 hPa 4.4 m/s 29.5 mm 17.1° 996.0 hPa 3.2 m/s 0.0 mm 17.1° 995.2 hPa 5.8 m/s
08:00 17.5° 994.1 hPa 3.8 m/s 6.8 mm 17.5° 992.6 hPa 3.5 m/s 29.6 mm 17.7° 996.0 hPa 3.7 m/s 0.0 mm 17.1° 995.1 hPa 5.7 m/s
11:00 17.6° 994.6 hPa 4.1 m/s 7.0 mm 18.0° 992.7 hPa 2.4 m/s 30.0 mm 17.7° 996.0 hPa 4.0 m/s 1.9 mm 18.9° 995.4 hPa 6.8 m/s
14:00 17.7° 994.5 hPa 3.8 m/s 7.7 mm 17.7° 993.1 hPa 1.6 m/s 30.4 mm 17.5° 995.7 hPa 3.9 m/s 3.4 mm 19.0° 995.6 hPa 5.9 m/s
17:00 17.3° 994.4 hPa 3.3 m/s 8.6 mm 17.3° 993.4 hPa 2.2 m/s 30.6 mm 17.2° 994.8 hPa 3.3 m/s 1.8 mm 18.6° 995.3 hPa 3.6 m/s
20:00 16.9° 994.2 hPa 2.0 m/s 0.0 mm 17.1° 992.6 hPa 2.0 m/s 30.6 mm 16.7° 994.6 hPa 2.3 m/s 0.0 mm 16.2° 995.1 hPa 1.7 m/s
23:00 14.9° 994.6 hPa 2.4 m/s 0.0 mm 14.7° 993.3 hPa 3.9 m/s 30.8 mm 14.2° 995.1 hPa 1.3 m/s 0.0 mm 12.9° 996.3 hPa 3.9 m/s
 05:05     21:40    Daglengte: 16:35 Zondag 01 Aug
02:00 13.7° 994.7 hPa 2.6 m/s 0.0 mm 13.6° 993.4 hPa 4.9 m/s 31.3 mm 12.4° 995.5 hPa 1.2 m/s 0.0 mm 12.4° 997.0 hPa 3.2 m/s
05:00 13.2° 996.0 hPa 3.7 m/s 0.0 mm 12.4° 994.4 hPa 7.0 m/s 31.5 mm 13.4° 996.4 hPa 2.8 m/s 0.0 mm 12.8° 997.9 hPa 3.4 m/s
08:00 13.9° 997.7 hPa 5.0 m/s 0.0 mm 13.1° 996.4 hPa 6.8 m/s 31.5 mm 14.2° 998.0 hPa 4.5 m/s 0.0 mm 13.8° 999.8 hPa 3.6 m/s
11:00 15.7° 997.6 hPa 5.4 m/s 31.5 mm 15.7° 997.6 hPa 5.4 m/s 31.5 mm 18.0° 1001.1 hPa 3.1 m/s
14:00 17.9° 998.4 hPa 4.0 m/s 31.5 mm 17.9° 998.4 hPa 4.0 m/s 31.5 mm 20.3° 1001.9 hPa 3.2 m/s
17:00 21.2° 1002.6 hPa 1.4 m/s 18.9 mm 21.2° 1002.6 hPa 1.4 m/s 18.9 mm
20:00 17.5° 1003.7 hPa 2.6 m/s 18.9 mm 17.5° 1003.7 hPa 2.6 m/s 18.9 mm
23:00 13.0° 1005.3 hPa 0.6 m/s 18.9 mm 13.0° 1005.3 hPa 0.6 m/s 18.9 mm
 05:07     21:38    Daglengte: 16:31 Maandag 02 Aug
02:00 11.3° 1006.0 hPa 1.6 m/s 18.9 mm 11.3° 1006.0 hPa 1.6 m/s 18.9 mm
05:00 10.1° 1006.8 hPa 1.9 m/s 18.9 mm 10.1° 1006.8 hPa 1.9 m/s 18.9 mm
08:00 13.4° 1007.2 hPa 2.3 m/s 18.9 mm 13.4° 1007.2 hPa 2.3 m/s 18.9 mm
11:00 18.6° 1007.6 hPa 1.0 m/s 18.9 mm 18.6° 1007.6 hPa 1.0 m/s 18.9 mm
14:00 20.7° 1007.4 hPa 2.4 m/s 18.9 mm 20.7° 1007.4 hPa 2.4 m/s 18.9 mm
17:00 19.8° 1007.8 hPa 2.1 m/s 18.9 mm 19.8° 1007.8 hPa 2.1 m/s 18.9 mm
20:00 17.2° 1008.3 hPa 2.3 m/s 19.1 mm 17.2° 1008.3 hPa 2.3 m/s 19.1 mm
23:00 13.2° 1009.4 hPa 2.4 m/s 19.1 mm 13.2° 1009.4 hPa 2.4 m/s 19.1 mm
 05:09     21:36    Daglengte: 16:27 Dinsdag 03 Aug
02:00 11.4° 1009.9 hPa 2.1 m/s 19.2 mm 11.4° 1009.9 hPa 2.1 m/s 19.2 mm
05:00 12.0° 1009.9 hPa 1.9 m/s 19.3 mm 12.0° 1009.9 hPa 1.9 m/s 19.3 mm
08:00 13.1° 1010.1 hPa 1.4 m/s 19.8 mm 13.1° 1010.1 hPa 1.4 m/s 19.8 mm
11:00 18.0° 1010.0 hPa 1.2 m/s 19.9 mm 18.0° 1010.0 hPa 1.2 m/s 19.9 mm
14:00 19.3° 1009.4 hPa 1.1 m/s 21.2 mm 19.3° 1009.4 hPa 1.1 m/s 21.2 mm
17:00 19.1° 1008.9 hPa 2.0 m/s 22.5 mm 19.1° 1008.9 hPa 2.0 m/s 22.5 mm
20:00 17.1° 1009.1 hPa 1.8 m/s 22.7 mm 17.1° 1009.1 hPa 1.8 m/s 22.7 mm
23:00 13.7° 1010.0 hPa 0.9 m/s 23.1 mm 13.7° 1010.0 hPa 0.9 m/s 23.1 mm
 05:12     21:33    Daglengte: 16:21 Woensdag 04 Aug
02:00 13.3° 1010.4 hPa 1.0 m/s 24.9 mm 13.3° 1010.4 hPa 1.0 m/s 24.9 mm
05:00 12.0° 1010.9 hPa 1.3 m/s 25.1 mm 12.0° 1010.9 hPa 1.3 m/s 25.1 mm
08:00 14.6° 1011.9 hPa 1.3 m/s 25.1 mm 14.6° 1011.9 hPa 1.3 m/s 25.1 mm
11:00 20.2° 1011.9 hPa 0.7 m/s 25.1 mm 20.2° 1011.9 hPa 0.7 m/s 25.1 mm
14:00 21.5° 1011.5 hPa 2.7 m/s 25.3 mm 21.5° 1011.5 hPa 2.7 m/s 25.3 mm
17:00 19.9° 1011.9 hPa 3.7 m/s 25.4 mm 19.9° 1011.9 hPa 3.7 m/s 25.4 mm
20:00 17.9° 1011.8 hPa 2.7 m/s 25.4 mm 17.9° 1011.8 hPa 2.7 m/s 25.4 mm
23:00 14.6° 1012.3 hPa 2.2 m/s 25.4 mm 14.6° 1012.3 hPa 2.2 m/s 25.4 mm
 05:14     21:31    Daglengte: 16:17 Donderdag 05 Aug
02:00 14.1° 1011.9 hPa 1.6 m/s 25.4 mm 14.1° 1011.9 hPa 1.6 m/s 25.4 mm
05:00 15.1° 1011.4 hPa 2.9 m/s 25.4 mm 15.1° 1011.4 hPa 2.9 m/s 25.4 mm
08:00 17.2° 1011.6 hPa 4.5 m/s 25.4 mm 17.2° 1011.6 hPa 4.5 m/s 25.4 mm
11:00 18.9° 1012.2 hPa 5.5 m/s 25.4 mm 18.9° 1012.2 hPa 5.5 m/s 25.4 mm
14:00 20.0° 1012.2 hPa 6.0 m/s 25.4 mm 20.0° 1012.2 hPa 6.0 m/s 25.4 mm
20:00 17.0° 1011.4 hPa 4.3 m/s 29.4 mm 17.0° 1011.4 hPa 4.3 m/s 29.4 mm
 05:16     21:28    Daglengte: 16:12 Vrijdag 06 Aug
02:00 15.1° 1012.1 hPa 2.7 m/s 30.3 mm 15.1° 1012.1 hPa 2.7 m/s 30.3 mm
08:00 17.8° 1012.3 hPa 3.3 m/s 30.3 mm 17.8° 1012.3 hPa 3.3 m/s 30.3 mm
14:00 20.6° 1013.6 hPa 4.9 m/s 30.3 mm 20.6° 1013.6 hPa 4.9 m/s 30.3 mm
20:00 18.0° 1013.6 hPa 3.6 m/s 30.3 mm 18.0° 1013.6 hPa 3.6 m/s 30.3 mm
 05:18     21:26    Daglengte: 16:08 Zaterdag 07 Aug
02:00 14.7° 1014.6 hPa 2.4 m/s 30.3 mm 14.7° 1014.6 hPa 2.4 m/s 30.3 mm
08:00 17.0° 1015.0 hPa 1.7 m/s 30.5 mm 17.0° 1015.0 hPa 1.7 m/s 30.5 mm
14:00 22.6° 1014.9 hPa 2.7 m/s 30.9 mm 22.5° 1014.9 hPa 2.7 m/s 30.9 mm
20:00 18.2° 1014.2 hPa 0.5 m/s 30.9 mm 18.2° 1014.2 hPa 0.5 m/s 31.0 mm
 05:21     21:23    Daglengte: 16:02 Zondag 08 Aug
02:00 14.6° 1014.0 hPa 1.6 m/s 31.0 mm 14.6° 1014.0 hPa 1.6 m/s 31.0 mm
08:00 14.8° 1007.2 hPa 0.5 m/s 0.8 mm
14:00 18.6° 1007.5 hPa 2.1 m/s 1.3 mm
20:00 16.8° 1007.7 hPa 2.1 m/s 1.7 mm
 05:23     21:20    Daglengte: 15:57 Maandag 09 Aug
02:00 14.0° 1009.0 hPa 1.3 m/s 1.4 mm
08:00 14.9° 1009.3 hPa 0.6 m/s 0.4 mm
14:00 19.1° 1009.9 hPa 2.5 m/s 1.1 mm
20:00 16.9° 1009.8 hPa 2.1 m/s 1.4 mm
 05:25     21:18    Daglengte: 15:53 Dinsdag 10 Aug
02:00 13.8° 1011.0 hPa 1.3 m/s 0.6 mm
08:00 15.3° 1011.2 hPa 0.7 m/s 0.8 mm
14:00 19.3° 1011.3 hPa 2.6 m/s 0.7 mm
20:00 17.2° 1010.9 hPa 2.3 m/s 0.7 mm
 05:28     21:15    Daglengte: 15:47 Woensdag 11 Aug
02:00 14.2° 1012.1 hPa 1.1 m/s 0.3 mm
08:00 15.3° 1012.5 hPa 0.8 m/s 0.3 mm
14:00 19.8° 1012.3 hPa 2.9 m/s 0.8 mm
20:00 17.5° 1011.5 hPa 3.3 m/s 0.5 mm
 05:30     21:12    Daglengte: 15:42 Donderdag 12 Aug
02:00 14.7° 1012.0 hPa 1.7 m/s 0.7 mm
08:00 15.4° 1011.6 hPa 1.3 m/s 0.5 mm
14:00 19.8° 1011.4 hPa 2.4 m/s 0.8 mm
20:00 18.0° 1011.3 hPa 2.1 m/s 0.5 mm
 05:32     21:10    Daglengte: 15:38 Vrijdag 13 Aug
02:00 14.5° 1012.2 hPa 1.3 m/s 0.3 mm
08:00 15.5° 1012.1 hPa 1.0 m/s 0.9 mm
FMI Hirlam - 7.5 km EWN WRFDA - 12 km DWD ICON - 7 km GFS - 25 km Basiskaart






























































Updatetijd (Europe/Amsterdam) Resolutie Lengte Stap
FMI Hirlam 07:00, 13:00, 19:00, 01:00 7.5 km 49h 1h
EWN WRFDA 10:15, 16:15, 22:15, 04:15 12 km 73h 1h
DWD ICON 06:15, 12:15, 18:15, 00:15 7 km 75h 1h
GFS 08:15, 14:15, 20:15, 02:15 25 km 237h 3h
30+ mm
25-30 mm
20-25 mm
15-20 mm
10-15 mm
6-10 mm
4-6 mm
2-4 mm
1-2 mm
0.5-1 mm
0.2-0.5 mm
0.1-0.2 mm
30+ mm
25-30 mm
20-25 mm
15-20 mm
10-15 mm
6-10 mm
4-6 mm
2-4 mm
1-2 mm
0.5-1 mm
0.2-0.5 mm
0.1-0.2 mm
Sneeuwval
Natte sneeuw
Hagel
Vorst
30+ mm
25-30 mm
20-25 mm
15-20 mm
10-15 mm
6-10 mm
4-6 mm
2-4 mm
1-2 mm
0.5-1 mm
0.2-0.5 mm
0.1-0.2 mm
Sneeuwval
Natte sneeuw
Hagel
Vorst
Onweer
50 mm
40 mm
30 mm
26 mm
22 mm
18 mm
14 mm
10 mm
9 mm
8 mm
7 mm
6 mm
5 mm
4.5 mm
4 mm
3.5 mm
3 mm
2.5 mm
2 mm
1.5 mm
1 mm
0.8 mm
0.6 mm
0.4 mm
0.2 mm
0.05 mm
35°
30°
25°
20°
15°
10°
-5°
-10°
-15°
-20°
-25°
-30°
-35°
33> m/s
29 m/s
25 m/s
21 m/s
17 m/s
14 m/s
11 m/s